SCOUT A DEB, 2644

Orbit data source: Space-Track

SCOUT A DEB, 2644 is space debris in LEO originally from a launch on Thu, 19 May 1966 UTC launched from the Air Force Western Test Range (AFWTR). Debris objects in space refer to the collection of defunct objects orbiting the Earth. Examples of debris include non-operational satellites, rocket bodies, and fragments generated from explosions, collisions, or faulty payload assembly.

Loading next visibility...
Identifier
2644, 1966-041D
Orbit
LEO
Last TLE update
1 day ago
Origin
Manufacturer
Unknown
Mission
Spacecraft
Bus & Motor
Unknown
Mass
Unknown
Launch date (UTC)
1966-05-19 (59 years ago)
Launch vehicle
Unknown
Launch site
Air Force Western Test Range (AFWTR)
Object type
Payload
Rocket body
Debris
Shape & HBR
Unknown
Radar Cross Section
Small (<0.1 m²)

Expand to show TLE details & history

TLE from 1 day ago
0 SCOUT A DEB
1 02644U 66041D   25128.25160310  .00000300  00000-0  24766-3 0  9990
2 02644  90.1553  38.5242 0213586 153.2602 207.9770 13.76937711942966
Epoch: 2025-05-08T06:02Z
Definitive object data (Epoch: 2025-05-08T06:02:18.507Z)
Latitude
-0.00002°
Longitude
81.62231°
Altitude
1,117.205 km
Speed
7.224 km/s
True Right ascension
02h 34m 05s
True Declination
0° 00' 00"
Sunlit
Object was in daylight at TLE epoch
Visualization TLE readout
Latitude
-64.11925°
Longitude
-98.67984°
Altitude
1,006.093 km
Speed
7.344 km/s
Apparent Right ascension
01h 02m 35s
Apparent Declination
-80° 40' 26"
Sunlit
Object is in full shadow
Visualization observer readout
Local Sidereal Time
14:01:15
Azimuth
176.423° S
Elevation
-48.888°
Doppler factor
1
Orbital elements
Apogee altitude
1,128.761 km
Perigee altitude
814.793 km
Semi-major axis
7,349.914 km
Eccentricity
0.0213586
Inclination
90.1553°
RAAN
38.5242°
Arg. of periapsis
153.2602°
True anomaly
206.85537°
Mean anomaly
207.977°
Eccentric anomaly
207.41357°
Mean motion
3.44445 °/min
BSTAR
0.00024766
Orbital period
104.52 mins
Loading maneuver chart data...
Loading SW <> Apogee altitude chart data...
Loading historical data...
Loading historical data...
Loading historical data...
Loading historical data...
Loading historical data...
Loading historical data...
Loading historical data...

SCOUT A DEB Visibility forecast

Observer location: undefined°, undefined°

Span
Click to sort rows by Start time (UTC) header in descending order
Start Az.
Max El. time (UTC)
Max El. Az.
Max El.
End time (UTC)
End Az.
8 mins2025-05-09 07:03:30.825Z341.088° N2025-05-09 07:07:30.825Z280.816° WNW30.938°2025-05-09 07:11:30.825Z219.149° SW
7 mins2025-05-09 17:04:30.825Z112.674° SE2025-05-09 17:07:30.825Z78.338° E21.519°2025-05-09 17:11:30.825Z32.322° NE
11 mins2025-05-09 18:46:30.825Z197.45° SSW2025-05-09 18:51:30.825Z264.063° W38.944°2025-05-09 18:57:30.825Z347.205° N
8 mins2025-05-10 05:44:30.825Z23.309° NE2025-05-10 05:48:30.825Z99.075° ESE34.225°2025-05-10 05:52:30.825Z156.388° SSE
|